EHI
4 9 21 31 26 10 1 0 0 0 0 0 0 0 0 0 0 0 0 0 1 3 5 5 3 1 0 0 0 0 1 2 2 2 2 3 3 2 1 0 0 0 0 0 0 1 3 5 7
9 18 28 28 18 6 0 0 0 0 0 0 0 0 0 0 0 0 0 0 1 3 5 5 4 1 0 0 0 0 1 2 2 2 3 3 3 2 1 0 0 0 0 0 0 1 2 3 4
20 26 30 23 10 2 0 0 0 0 0 0 0 0 0 0 0 0 0 1 2 4 6 7 5 3 1 1 0 0 1 2 2 2 2 2 1 1 1 1 0 0 0 0 0 1 2 2 2
30 30 25 14 4 0 0 0 0 0 0 0 0 0 0 0 0 0 0 1 2 5 7 7 6 4 3 2 1 0 1 1 1 1 1 1 1 0 1 1 0 0 0 0 1 2 4 4 3
31 27 17 6 1 0 0 0 0 0 0 0 0 0 0 0 0 0 0 1 3 5 7 6 5 4 3 2 1 0 0 0 0 0 0 0 0 0 1 1 0 0 0 0 1 3 3 3 3
23 19 9 2 0 0 0 0 0 0 0 0 0 0 0 0 0 0 0 1 2 5 6 6 5 5 3 1 0 0 0 0 0 0 0 0 0 0 1 1 0 0 0 0 1 2 1 1 1
17 12 4 0 0 0 0 0 0 0 0 0 0 0 0 0 0 0 0 0 1 3 5 5 5 5 4 2 1 0 0 0 0 0 0 0 0 0 0 0 0 0 0 0 1 1 0 0 0
12 8 3 0 0 0 0 0 0 0 0 0 0 0 0 0 0 0 0 0 0 1 3 4 4 4 3 3 2 1 1 0 0 0 0 0 0 0 0 0 0 0 0 0 0 0 0 1 1
8 6 2 0 0 0 0 0 0 0 0 0 1 1 0 0 0 0 0 0 0 0 1 3 4 3 2 2 3 3 2 1 1 1 1 0 0 0 0 0 0 1 1 1 1 1 1 2 3
4 4 1 0 0 0 0 0 0 0 0 1 2 2 1 0 0 0 0 0 0 0 0 1 3 2 1 2 3 3 2 1 2 2 2 1 1 1 1 1 2 3 3 3 3 3 3 3 3
1 1 0 0 0 0 0 0 0 0 0 1 3 3 2 1 1 1 1 1 0 1 1 1 3 3 2 2 2 2 1 1 1 2 2 2 1 2 2 2 4 6 5 4 3 3 3 2 1
0 0 0 0 0 0 0 0 0 0 0 2 3 2 1 2 2 2 3 3 2 2 3 4 6 8 9 9 6 3 1 0 0 1 1 2 2 2 3 4 6 7 6 5 4 2 1 0 0
0 0 0 0 0 0 0 0 0 0 0 1 2 1 0 1 3 3 4 4 4 4 6 8 10 13 17 19 16 8 3 0 0 1 1 1 1 2 4 6 8 8 6 6 5 3 1 0 0
0 0 0 0 0 0 0 0 0 0 0 1 1 0 0 1 3 3 4 5 5 5 8 10 13 14 18 21 18 11 4 0 0 1 1 1 1 2 5 9 10 9 8 7 5 4 3 2 2
0 0 0 0 0 0 0 0 0 0 0 1 1 1 1 3 4 4 5 6 6 7 10 12 13 14 15 16 14 9 4 1 0 1 1 2 3 4 6 9 9 9 8 8 7 6 6 5 4
0 0 0 0 0 0 0 0 0 0 0 0 1 2 4 5 5 6 8 9 10 12 14 14 13 14 14 13 10 6 4 2 1 1 3 4 6 7 7 7 7 8 9 9 8 6 5 5 6
0 0 0 0 0 0 0 1 0 0 0 0 1 3 6 6 6 8 10 12 15 19 19 15 15 15 14 12 9 6 5 4 3 3 4 6 7 8 9 9 9 10 9 8 7 6 6 7 7
0 0 0 0 0 0 0 1 1 0 0 1 2 4 7 7 7 8 10 14 20 25 24 20 18 17 15 11 8 7 8 8 7 8 8 8 8 9 9 8 9 10 9 8 8 8 8 8 10
0 0 0 0 0 0 1 1 2 2 1 1 2 5 10 13 13 13 13 18 27 32 30 25 21 19 17 13 11 10 10 11 12 14 14 12 10 10 9 8 8 10 11 11 11 10 8 8 8
0 0 0 0 0 1 2 2 2 3 2 0 2 6 14 22 25 25 22 24 34 40 36 29 24 22 20 16 14 13 13 14 16 18 18 16 13 11 9 9 10 11 13 15 14 13 9 6 5
0 0 0 0 0 1 2 1 2 3 2 0 1 4 13 26 35 35 30 31 39 44 40 32 29 27 24 20 17 15 15 15 17 20 21 18 15 12 10 10 10 10 12 15 17 15 10 5 4
0 0 0 0 0 0 0 0 1 2 2 1 1 3 10 23 34 36 33 35 41 43 40 37 36 34 29 23 19 17 15 14 17 22 22 20 18 14 11 11 10 8 9 12 14 14 11 7 5
0 0 0 0 0 0 0 0 0 1 2 2 1 3 8 18 28 32 33 36 39 39 41 41 42 40 34 27 22 19 15 13 17 20 21 21 20 18 16 16 14 11 9 10 12 14 14 10 7
0 0 0 0 0 0 0 0 0 1 2 2 2 4 7 16 25 31 34 36 36 37 41 44 46 44 39 31 26 23 19 17 17 17 17 17 19 20 21 21 20 15 13 14 15 16 16 13 10
0 0 0 0 0 0 0 0 0 1 2 2 2 4 7 15 26 34 39 41 39 37 40 47 52 50 43 35 29 28 27 22 18 16 14 14 15 19 24 26 24 20 17 17 18 20 18 16 15
0 0 0 0 0 0 0 0 1 2 3 2 2 4 8 15 26 36 42 44 41 39 41 50 57 55 47 40 34 34 33 28 22 18 15 13 12 18 26 30 29 25 22 20 21 22 22 21 21
0 0 0 0 0 0 0 1 2 4 4 3 3 6 10 17 25 33 38 40 39 40 45 55 62 59 50 44 40 40 40 33 26 22 19 15 14 20 29 33 33 30 28 27 26 25 25 25 26
0 0 0 0 0 0 0 1 2 4 5 4 5 8 12 17 23 28 31 32 34 38 46 58 64 62 54 48 45 46 47 40 31 26 24 23 22 26 31 34 33 32 32 32 31 29 28 28 29
0 0 0 0 0 0 0 0 2 4 6 5 6 9 14 18 23 29 31 31 33 38 47 56 61 60 56 53 51 53 53 47 37 33 34 34 34 33 33 34 33 33 32 31 32 32 31 32 33
0 0 0 0 0 0 0 1 2 4 5 6 7 10 15 19 25 31 33 33 34 39 48 55 58 57 55 55 57 58 57 50 43 41 43 43 40 36 34 34 35 34 32 30 31 33 34 34 34
Wind_Speed
10 11 9 6 5 1 9 12 12 11 11 11 11 12 14 14 11 8 6 8 9 10 9 9 9 10 11 12 13 13 14 14 14 14 15 15 15 15 16 17 19 19 19 19 19 18 18 18 18
10 12 9 5 2 4 11 11 12 12 10 10 12 14 15 14 12 9 7 7 9 10 10 10 12 12 12 12 13 14 14 14 15 15 15 16 16 16 17 18 19 19 19 18 18 18 17 17 16
12 13 6 3 3 8 11 10 11 10 10 10 12 15 13 10 11 8 7 7 9 11 11 12 14 14 14 14 13 13 14 14 15 15 15 16 16 16 16 17 18 18 17 17 17 17 16 16 15
7 6 5 0 8 11 10 9 9 10 10 10 11 12 12 11 10 10 8 8 10 12 12 13 15 15 14 14 14 13 14 14 15 15 15 16 16 16 16 16 17 16 16 16 16 15 14 14 13
8 4 3 4 10 11 10 10 9 11 11 12 14 14 13 12 12 11 8 8 9 11 13 13 14 14 14 14 14 14 14 14 14 14 15 15 15 16 16 15 16 16 16 15 15 14 12 12 11
5 4 1 6 10 11 11 9 10 12 12 12 14 14 11 10 10 9 8 8 9 12 13 12 13 14 14 13 13 13 13 13 13 14 14 14 14 14 15 15 16 15 15 14 14 13 12 11 9
5 4 1 7 10 11 10 9 10 10 11 12 12 13 11 10 10 9 8 7 9 11 12 11 11 11 13 13 13 12 12 12 12 12 12 13 13 13 14 14 13 13 13 13 12 11 11 9 7
5 4 3 7 10 11 10 10 10 12 11 9 10 10 10 10 10 9 8 8 9 9 9 10 11 10 10 10 11 11 11 11 11 11 11 12 12 12 14 13 12 12 12 11 11 10 9 8 6
5 3 4 7 9 10 10 11 11 11 11 10 12 14 13 12 10 9 8 9 8 7 6 8 8 9 10 10 10 9 10 9 9 8 9 9 7 9 9 12 12 11 10 10 10 9 9 7 6
2 1 7 6 9 10 10 10 9 10 12 13 14 15 14 12 10 9 9 9 8 6 6 6 6 6 7 7 7 6 6 6 4 4 5 4 4 5 9 12 12 11 10 9 9 8 8 6 4
3 5 7 8 10 9 10 10 8 10 11 13 14 14 12 12 9 9 9 8 7 5 5 6 6 4 5 4 4 3 3 4 4 5 4 4 4 4 6 5 7 7 8 5 6 6 4 4 3
4 5 6 8 8 8 9 9 9 10 12 15 15 14 11 10 9 9 9 9 7 6 6 6 6 5 4 3 3 3 3 3 4 3 3 3 2 2 3 3 4 3 3 3 3 3 2 2 2
2 4 6 7 8 8 8 10 11 13 14 15 15 14 11 10 9 9 9 8 7 6 7 7 6 5 3 2 1 3 3 4 4 3 3 3 3 3 3 2 2 2 2 3 2 2 2 2 1
1 3 4 6 6 7 8 9 9 12 14 15 14 12 11 9 9 9 9 8 7 7 7 7 7 5 3 2 1 2 3 3 4 3 3 2 2 3 2 2 1 1 1 2 1 2 2 2 1
2 1 1 5 6 6 6 8 8 11 13 13 13 11 10 9 9 9 9 9 8 7 7 7 7 6 4 3 1 2 3 4 4 4 3 3 3 3 2 2 2 1 1 2 1 1 1 2 2
3 4 3 3 4 7 4 5 10 11 12 12 12 12 10 9 9 9 9 8 8 8 7 6 7 8 5 3 1 1 2 3 3 3 3 3 3 3 2 2 2 2 2 1 2 1 1 1 1
6 5 5 4 5 6 6 6 10 12 12 11 11 12 11 10 9 9 10 9 9 8 7 5 5 7 6 4 2 1 2 2 2 2 3 3 3 3 2 2 1 2 2 1 1 2 1 1 1
8 6 6 6 6 6 6 6 9 10 10 12 12 12 11 11 10 10 10 11 10 9 8 6 5 6 5 4 2 1 2 2 2 2 2 3 2 3 2 2 2 1 1 1 1 2 2 1 1
10 7 6 4 6 5 6 7 8 10 10 10 12 12 12 12 12 12 11 12 11 10 8 7 6 5 4 3 3 2 2 2 2 2 3 3 2 2 1 1 2 2 2 1 2 2 2 2 1
10 7 6 4 6 4 5 5 7 10 11 11 11 13 13 13 13 12 11 12 12 11 9 8 7 6 5 3 2 2 2 2 3 2 3 3 3 3 3 2 2 2 2 2 2 1 1 1 1
10 9 6 4 4 4 3 4 7 7 9 11 12 13 13 14 15 14 12 12 12 12 11 9 8 7 6 4 3 2 2 1 2 3 3 3 3 3 2 3 2 2 2 2 2 2 2 1 1
8 8 6 5 7 4 5 4 6 9 10 11 11 12 13 14 15 15 14 12 12 12 12 9 9 8 7 5 4 4 3 2 2 2 3 3 3 3 3 3 2 2 1 2 2 2 1 2 2
8 8 8 7 8 6 7 6 6 10 10 10 11 11 13 14 15 16 15 13 13 13 12 10 9 8 7 6 5 4 2 2 2 2 3 3 3 4 4 3 2 2 1 1 1 1 1 1 1
9 9 8 7 6 8 10 8 5 6 9 11 11 11 12 14 15 15 15 13 12 13 12 12 10 9 8 6 5 4 3 3 2 2 3 3 3 3 4 3 2 2 1 1 2 1 2 1 1
11 9 6 7 6 8 10 8 5 7 8 9 10 10 10 13 14 14 15 14 12 13 13 12 12 10 9 8 6 5 4 4 3 3 3 3 3 3 3 3 3 2 2 2 2 2 2 2 2
11 11 9 8 7 8 9 6 3 6 6 7 8 10 11 11 12 14 15 14 13 13 12 12 12 11 10 8 7 5 5 4 3 3 3 2 2 2 3 3 3 3 2 2 2 2 2 2 2
13 12 12 10 10 9 6 4 4 4 7 8 8 10 10 10 11 13 15 15 14 13 12 12 12 11 10 9 7 6 6 4 3 3 3 2 2 2 3 3 3 3 2 2 2 2 2 1 2
15 12 9 9 7 8 6 6 3 4 6 7 7 9 10 10 10 12 13 14 13 13 12 11 11 10 9 9 8 7 6 5 4 3 3 2 2 1 2 3 3 2 2 3 2 2 2 2 2
13 14 11 8 7 9 7 4 2 4 5 6 7 8 9 9 10 9 9 11 12 12 12 11 11 10 9 8 7 5 6 6 5 4 3 2 2 2 2 2 2 2 2 2 2 2 2 2 2
14 15 13 9 7 8 7 5 3 4 5 5 6 5 7 8 9 10 10 10 10 11 11 10 11 11 9 8 7 6 6 5 5 4 4 3 3 3 3 2 2 3 2 2 2 2 2 2 2
Wind_Direction
194 209 212 232 238 225 63 65 65 66 67 61 58 65 64 53 57 81 73 62 77 86 87 84 77 81 82 82 83 81 80 82 84 87 86 87 88 91 95 101 104 107 109 110 112 113 114 114 116
220 221 221 245 271 70 65 62 63 61 69 75 70 69 70 66 68 88 86 78 77 83 81 77 85 87 90 86 86 84 83 84 87 90 90 91 91 92 96 101 104 107 110 111 112 115 116 118 122
251 254 254 243 36 65 73 71 76 74 71 75 77 69 64 74 77 88 96 96 84 84 84 83 89 92 93 90 89 86 86 88 89 92 92 94 94 95 97 101 104 107 110 112 114 116 119 122 126
243 244 243 109 65 67 77 85 87 86 80 77 80 75 73 74 88 97 102 99 95 97 93 91 94 94 92 92 90 88 87 89 91 94 94 96 97 98 98 101 105 108 111 112 113 115 119 122 127
243 260 259 81 83 82 77 76 81 80 76 79 86 88 86 87 92 100 104 102 99 96 99 100 100 96 95 94 93 92 92 93 95 97 98 99 99 101 101 103 109 110 110 112 115 117 119 123 128
260 264 288 86 84 84 83 81 82 83 90 95 97 98 95 104 106 106 103 101 105 103 102 107 105 104 101 99 97 96 96 96 99 102 104 104 103 104 104 104 111 111 113 114 116 118 120 123 126
256 283 8 86 94 88 86 88 85 89 87 94 104 102 109 115 114 114 109 104 102 105 110 119 120 114 110 105 103 102 103 101 103 107 109 111 111 110 110 110 110 114 119 119 121 123 124 127 132
252 274 30 78 93 95 97 92 91 92 88 100 108 106 119 122 123 118 116 110 102 103 113 123 127 128 126 120 115 114 115 115 115 117 121 123 124 123 123 120 118 120 123 125 127 130 133 137 147
267 284 43 68 93 106 107 102 100 102 104 93 87 104 123 128 126 124 120 107 98 101 109 118 124 133 131 127 128 132 129 131 133 135 144 144 138 134 133 124 130 133 134 135 136 141 146 156 172
219 53 69 71 93 107 107 109 121 114 105 99 97 107 125 133 133 131 122 114 111 112 110 112 114 118 125 127 135 147 141 144 149 138 148 141 129 129 128 135 143 146 147 150 157 161 168 182 185
98 72 78 85 93 107 111 114 111 110 112 114 119 127 135 138 140 132 125 120 121 128 117 106 100 112 117 114 132 131 126 132 130 122 125 128 129 133 131 147 151 158 161 167 162 176 190 183 186
77 84 87 88 94 102 106 108 101 99 110 120 126 133 138 143 141 137 130 128 134 136 125 115 106 89 79 97 116 128 124 125 117 123 117 116 115 114 122 136 145 156 157 155 158 173 161 155 167
116 106 95 95 103 104 109 106 106 104 114 122 129 136 144 145 142 137 133 133 136 136 123 107 104 95 82 58 64 119 110 115 115 117 104 110 118 111 105 96 108 129 135 148 158 143 149 156 149
78 90 106 116 117 123 118 113 113 116 125 129 135 142 150 150 148 140 141 139 145 143 129 125 125 121 116 106 44 85 109 109 114 112 109 103 102 108 114 122 119 132 134 132 138 143 149 141 127
24 334 151 156 148 129 118 121 125 130 136 139 144 149 152 153 150 147 145 147 150 145 136 136 138 131 134 130 150 124 127 130 121 121 127 125 122 123 136 145 149 156 167 151 132 122 156 153 148
220 220 230 230 175 147 145 137 138 146 148 147 153 154 157 155 155 151 146 147 144 140 137 149 146 136 138 138 162 116 120 116 124 134 138 138 138 143 154 147 164 182 174 147 144 162 170 117 138
243 227 208 221 211 162 171 156 152 162 156 155 159 159 162 159 160 155 150 149 139 134 135 140 132 136 144 150 154 137 102 103 118 127 134 136 143 146 156 152 160 196 164 163 166 131 135 162 174
228 217 210 201 193 180 165 152 161 169 165 162 163 164 168 163 165 158 154 148 140 137 136 139 137 134 143 148 148 155 133 132 138 128 132 134 151 157 166 169 173 171 131 154 138 150 176 197 218
236 221 226 208 191 193 171 161 177 174 174 169 168 167 169 167 165 159 160 154 148 144 142 143 146 141 146 154 165 169 162 160 156 154 149 153 164 157 173 165 154 173 160 160 156 172 185 194 189
253 248 245 220 191 201 184 180 190 188 180 176 175 170 170 167 164 161 164 161 156 151 150 151 155 153 159 159 165 167 166 165 160 147 139 159 167 176 187 166 193 187 155 167 178 163 223 226 166
254 254 245 251 243 242 243 217 196 202 187 179 179 172 171 170 167 165 170 169 163 159 162 165 160 159 167 167 165 174 159 173 148 145 155 173 177 184 183 180 209 178 174 175 185 181 210 234 231
260 269 266 255 256 243 236 241 209 199 194 185 181 175 173 171 167 170 174 173 168 163 164 159 156 159 165 174 174 181 173 176 168 159 160 169 178 189 184 186 193 203 190 164 194 171 229 226 244
262 272 276 269 264 260 242 242 211 197 190 183 182 182 176 172 169 171 174 172 170 166 165 161 158 160 164 177 180 186 187 184 174 163 162 172 186 194 198 183 184 196 203 176 214 160 228 246 270
255 262 269 271 275 264 261 252 213 203 185 179 180 181 179 172 169 168 170 168 170 167 165 164 160 164 169 178 181 183 189 196 197 195 178 187 188 195 194 180 181 186 199 193 214 212 223 234 265
239 243 251 248 248 252 259 256 196 183 180 177 171 173 175 170 168 165 167 167 169 170 168 164 160 166 172 179 185 181 188 202 201 214 211 203 197 189 183 183 177 185 194 204 210 208 238 237 244
239 240 239 246 246 250 243 242 200 161 155 156 162 166 169 172 169 166 165 165 170 172 167 163 163 170 176 181 184 182 184 201 200 207 226 211 205 177 168 170 176 189 202 210 195 228 226 225 239
246 244 250 257 257 265 262 237 191 152 154 157 163 161 166 174 170 166 165 167 171 172 168 165 163 169 176 180 178 185 188 200 204 192 211 220 203 188 163 170 180 190 192 213 208 216 243 225 229
243 253 256 253 265 268 250 249 221 184 170 161 166 164 164 170 166 165 165 167 168 170 166 163 162 168 174 178 182 184 186 191 198 205 200 199 205 193 167 174 183 192 198 207 216 216 220 223 233
231 244 251 259 260 265 264 260 208 192 192 172 165 163 161 163 158 154 158 161 162 165 167 165 163 165 172 178 177 176 175 184 196 200 194 195 201 189 191 197 198 199 207 210 215 224 224 214 233
242 241 243 247 250 260 266 267 263 187 172 157 144 145 153 153 154 153 152 150 157 163 166 166 167 169 174 175 173 177 176 184 194 192 193 195 198 197 197 199 203 215 209 206 210 236 243 229 228